Location: ???????
(38.3360°N, 23.6977°E)
Time: 23:07:28
(UTC+00:00)

Cosmos 1092 Rocket - Pass Details

Date: 17 November 2025
Orbit: 953 x 995 km, 82.9° (Epoch: 13 December)

Event Time Altitude Azimuth Distance (km) Brightness Sun altitude
Rises 17:46:29 0° 350° (N) 3,683 7.1 -30.4°
Reaches altitude 10° 17:49:01 10° 349° (N) 2,725 6.4 -30.9°
Enters shadow 17:54:58 72° 287° (WNW) 1,015 4.1 -32.0°
Exits shadow 18:02:36 - 182° (S) 3,161 6.7 -33.5°
Sets 18:03:49 0° 181° (S) 3,620 7.0 -33.8°
